Retour au catalogue

SCOUT B DEB

LostUNKNOWN
NORAD 29179·DEBRIS·🇺🇸 United States

Lancé Aug 10, 1965 depuis Wallops Flight Facility

Loading…

Prochains Passages (prochaines 24 heures)

TLE

PériméSource: Space-Track

Époque: Dec 31, 2017, 17:56 UTC

1 29179U 65063AD  17365.74742390 -.00000115  00000-0 -56996-3 0  9993
2 29179  69.2247 115.0130 0757017  27.5610 336.3469 11.84250357545025

Suivez SCOUT B DEB en temps réel avec AllMySat

Download on the App Store